sat.trackr.live / text

‹ back to catalog

STARLINK-31809

NORAD 59743 · 2024-090P

PAYLOAD ACTIVE UNKNOWN

§ Identity

Operator
Country
US
Launch date
2024-05-13
Launch site
AFETR
Launch vehicle
Mass (kg)
RCS (m²)

Purposes: comms

External: N2YO · Heavens-Above · Gunter

§ Orbital elements

Epoch: 2026-09-21T09:48:18.021024Z

Period
94.27 min
Inclination
43.0037°
Eccentricity
0.0001159
Mean motion
15.27577987 rev/d
Perigee alt
482.3 km
Apogee alt
483.9 km
Semi-major
6,861.2 km
B*
1.7662e-5
RAAN
151.1839°
Arg perigee
264.8569°
Mean anomaly
95.2150°
Rev number
13,345

§ Raw data

STARLINK-318091 59743U 24090P   26264.40854191  .00000224  00000+0  17662-4 0  99982 59743  43.0037 151.1839 0001159 264.8569  95.2150 15.27577987133457

JSON: /api/v1/satellites/59743 · /tle

For live sub-satellite position, see the globe view (requires WebGL).

§ Visibility from observer

Set your observer location to see the next 7 days of passes ≥ 10°. The values pass through the URL so the page stays shareable.

No JS? Fill the form by hand. The geolocation button needs JavaScript.